Time,TemperatureF,DewpointF,PressureIn,WindDirection,WindDirectionDegrees,WindSpeedMPH,WindSpeedGustMPH,Humidity,HourlyPrecipIn,Conditions,Clouds,dailyrainin,SoftwareType,DateUTC
2013-06-14 00:03:00,42.1,33.1,30.21,NNE,23,1.1,2.5,70,0.00,,,0.00,WUHU216HW,2013-06-14 07:03:00,
2013-06-14 00:08:00,42.1,33.5,30.21,NNW,338,1.1,2.5,71,0.00,,,0.00,WUHU216HW,2013-06-14 07:08:00,
2013-06-14 00:13:00,41.8,33.1,30.21,NW,315,0.4,2.5,71,0.00,,,0.00,WUHU216HW,2013-06-14 07:13:00,
2013-06-14 00:18:00,41.4,32.8,30.20,WNW,293,0.9,1.1,71,0.00,,,0.00,WUHU216HW,2013-06-14 07:18:00,
2013-06-14 00:23:00,41.4,32.8,30.21,West,270,1.6,1.6,71,0.00,,,0.00,WUHU216HW,2013-06-14 07:23:00,
2013-06-14 00:28:00,41.2,32.9,30.20,West,270,2.5,3.4,72,0.00,,,0.00,WUHU216HW,2013-06-14 07:28:00,
2013-06-14 00:33:00,41.0,32.7,30.20,West,270,2.5,3.8,72,0.00,,,0.00,WUHU216HW,2013-06-14 07:33:00,
2013-06-14 00:39:00,40.9,33.1,30.20,WSW,248,3.4,3.8,74,0.00,,,0.00,WUHU216HW,2013-06-14 07:39:00,
2013-06-14 00:44:00,40.9,32.9,30.20,WSW,248,2.2,4.5,73,0.00,,,0.00,WUHU216HW,2013-06-14 07:44:00,
2013-06-14 00:49:00,40.7,32.7,30.20,West,270,2.9,4.5,73,0.00,,,0.00,WUHU216HW,2013-06-14 07:49:00,
2013-06-14 00:54:00,40.7,33.0,30.20,WSW,248,3.4,3.4,74,0.00,,,0.00,WUHU216HW,2013-06-14 07:54:00,
2013-06-14 00:59:00,40.7,33.0,30.21,WSW,248,2.0,3.4,74,0.00,,,0.00,WUHU216HW,2013-06-14 07:59:00,
2013-06-14 01:04:00,40.7,33.0,30.21,West,270,1.3,3.4,74,0.00,,,0.00,WUHU216HW,2013-06-14 08:04:00,
2013-06-14 01:09:00,40.7,33.0,30.21,SW,225,2.7,3.4,74,0.00,,,0.00,WUHU216HW,2013-06-14 08:09:00,
2013-06-14 01:14:00,40.5,32.9,30.21,West,270,2.7,3.6,74,0.00,,,0.00,WUHU216HW,2013-06-14 08:14:00,
2013-06-14 01:19:00,40.5,33.1,30.21,West,270,2.5,4.5,75,0.00,,,0.00,WUHU216HW,2013-06-14 08:19:00,
2013-06-14 01:24:00,40.3,32.9,30.21,West,270,2.0,4.5,75,0.00,,,0.00,WUHU216HW,2013-06-14 08:24:00,
2013-06-14 01:29:00,40.3,32.9,30.21,NW,315,1.3,4.5,75,0.00,,,0.00,WUHU216HW,2013-06-14 08:29:00,
2013-06-14 01:34:00,40.1,32.8,30.21,NW,315,1.1,3.1,75,0.00,,,0.00,WUHU216HW,2013-06-14 08:34:00,
2013-06-14 01:39:00,40.0,32.7,30.21,WNW,293,1.1,3.1,75,0.00,,,0.00,WUHU216HW,2013-06-14 08:39:00,
2013-06-14 01:44:00,39.8,32.5,30.21,WNW,293,1.3,3.6,75,0.00,,,0.00,WUHU216HW,2013-06-14 08:44:00,
2013-06-14 01:49:00,39.6,32.9,30.20,WNW,293,1.8,3.6,77,0.00,,,0.00,WUHU216HW,2013-06-14 08:49:00,
2013-06-14 01:55:00,39.4,32.8,30.20,West,270,3.4,4.0,77,0.00,,,0.00,WUHU216HW,2013-06-14 08:55:00,
2013-06-14 02:00:00,39.4,32.5,30.20,WNW,293,2.0,4.0,76,0.00,,,0.00,WUHU216HW,2013-06-14 09:00:00,
2013-06-14 02:05:00,39.4,32.5,30.20,NNW,338,0.2,2.9,76,0.00,,,0.00,WUHU216HW,2013-06-14 09:05:00,
2013-06-14 02:10:00,39.2,32.3,30.20,NW,315,0.4,1.6,76,0.00,,,0.00,WUHU216HW,2013-06-14 09:10:00,
2013-06-14 02:15:00,39.2,32.3,30.20,WNW,293,1.3,1.3,76,0.00,,,0.00,WUHU216HW,2013-06-14 09:15:00,
2013-06-14 02:20:00,39.2,32.7,30.20,NNW,338,0.4,1.6,77,0.00,,,0.00,WUHU216HW,2013-06-14 09:20:00,
2013-06-14 02:25:00,39.1,32.5,30.20,NW,315,1.3,2.5,77,0.00,,,0.00,WUHU216HW,2013-06-14 09:25:00,
2013-06-14 02:30:00,39.1,32.5,30.20,WNW,293,1.1,2.5,77,0.00,,,0.00,WUHU216HW,2013-06-14 09:30:00,
2013-06-14 02:35:00,38.9,32.6,30.20,NNW,338,1.6,2.5,78,0.00,,,0.00,WUHU216HW,2013-06-14 09:35:00,
2013-06-14 02:40:00,38.7,32.8,30.20,NNW,338,0.9,1.6,79,0.00,,,0.00,WUHU216HW,2013-06-14 09:40:00,
2013-06-14 02:45:00,38.7,32.1,30.20,NW,315,0.4,1.3,77,0.00,,,0.00,WUHU216HW,2013-06-14 09:45:00,
2013-06-14 02:50:00,38.7,32.1,30.20,NW,315,0.9,1.8,77,0.00,,,0.00,WUHU216HW,2013-06-14 09:50:00,
2013-06-14 02:55:00,38.5,32.0,30.20,NNW,338,0.4,1.8,77,0.00,,,0.00,WUHU216HW,2013-06-14 09:55:00,
2013-06-14 03:00:00,38.7,32.5,30.20,NW,315,1.1,1.8,78,0.00,,,0.00,WUHU216HW,2013-06-14 10:00:00,
2013-06-14 03:05:00,38.7,32.8,30.20,NW,315,1.1,1.3,79,0.00,,,0.00,WUHU216HW,2013-06-14 10:05:00,
2013-06-14 03:11:00,38.5,32.3,30.20,WNW,293,0.4,1.3,78,0.00,,,0.00,WUHU216HW,2013-06-14 10:11:00,
2013-06-14 03:16:00,38.3,31.4,30.19,NW,315,0.4,1.6,76,0.00,,,0.00,WUHU216HW,2013-06-14 10:16:00,
2013-06-14 03:21:00,38.2,31.6,30.19,North,0,0.0,1.6,77,0.00,,,0.00,WUHU216HW,2013-06-14 10:21:00,
2013-06-14 03:26:00,38.3,32.1,30.19,NNW,338,2.5,3.6,78,0.00,,,0.00,WUHU216HW,2013-06-14 10:26:00,
2013-06-14 03:31:00,38.5,32.6,30.19,NNW,338,0.4,3.6,79,0.00,,,0.00,WUHU216HW,2013-06-14 10:31:00,
2013-06-14 03:36:00,38.5,32.6,30.19,North,0,0.0,2.5,79,0.00,,,0.00,WUHU216HW,2013-06-14 10:36:00,
2013-06-14 03:41:00,38.5,32.6,30.19,North,0,0.0,0.4,79,0.00,,,0.00,WUHU216HW,2013-06-14 10:41:00,
2013-06-14 03:46:00,38.5,32.6,30.19,North,0,0.0,0.0,79,0.00,,,0.00,WUHU216HW,2013-06-14 10:46:00,
2013-06-14 03:51:00,38.5,32.6,30.19,North,0,0.0,0.0,79,0.00,,,0.00,WUHU216HW,2013-06-14 10:51:00,
2013-06-14 03:56:00,38.5,32.6,30.19,North,0,0.0,0.0,79,0.00,,,0.00,WUHU216HW,2013-06-14 10:56:00,
2013-06-14 04:01:00,38.5,32.6,30.19,North,0,0.0,0.0,79,0.00,,,0.00,WUHU216HW,2013-06-14 11:01:00,
2013-06-14 04:06:00,38.5,32.3,30.19,North,0,0.0,0.0,78,0.00,,,0.00,WUHU216HW,2013-06-14 11:06:00,
2013-06-14 04:11:00,38.7,32.1,30.19,North,0,0.0,0.0,77,0.00,,,0.00,WUHU216HW,2013-06-14 11:11:00,
2013-06-14 04:16:00,38.5,32.0,30.19,North,0,0.0,0.0,77,0.00,,,0.00,WUHU216HW,2013-06-14 11:16:00,
2013-06-14 04:22:00,38.2,31.6,30.19,North,0,0.0,0.0,77,0.00,,,0.00,WUHU216HW,2013-06-14 11:22:00,
2013-06-14 04:27:00,38.2,31.6,30.19,North,0,0.0,0.0,77,0.00,,,0.00,WUHU216HW,2013-06-14 11:27:00,
2013-06-14 04:32:00,38.2,31.2,30.19,North,0,0.0,0.0,76,0.00,,,0.00,WUHU216HW,2013-06-14 11:32:00,
2013-06-14 04:37:00,38.0,31.1,30.19,North,0,0.0,0.0,76,0.00,,,0.00,WUHU216HW,2013-06-14 11:37:00,
2013-06-14 04:42:00,37.8,30.9,30.19,North,0,0.0,0.0,76,0.00,,,0.00,WUHU216HW,2013-06-14 11:42:00,
2013-06-14 04:47:00,37.4,30.9,30.19,North,0,0.0,0.0,77,0.00,,,0.00,WUHU216HW,2013-06-14 11:47:00,
2013-06-14 04:52:00,37.3,30.7,30.19,North,0,0.0,0.0,77,0.00,,,0.00,WUHU216HW,2013-06-14 11:52:00,
2013-06-14 04:57:00,37.4,30.9,30.19,North,0,0.0,0.0,77,0.00,,,0.00,WUHU216HW,2013-06-14 11:57:00,
2013-06-14 05:02:00,37.4,30.6,30.19,North,0,0.0,0.0,76,0.00,,,0.00,WUHU216HW,2013-06-14 12:02:00,
2013-06-14 05:07:00,37.4,30.6,30.19,North,0,0.0,0.0,76,0.00,,,0.00,WUHU216HW,2013-06-14 12:07:00,
2013-06-14 05:12:00,37.6,30.8,30.19,North,0,0.0,0.0,76,0.00,,,0.00,WUHU216HW,2013-06-14 12:12:00,
2013-06-14 05:17:00,37.4,30.2,30.19,North,0,0.0,0.0,75,0.00,,,0.00,WUHU216HW,2013-06-14 12:17:00,
2013-06-14 05:22:00,37.4,30.2,30.19,North,0,0.0,0.0,75,0.00,,,0.00,WUHU216HW,2013-06-14 12:22:00,
2013-06-14 05:27:00,37.3,30.4,30.19,North,0,0.0,0.0,76,0.00,,,0.00,WUHU216HW,2013-06-14 12:27:00,
2013-06-14 05:32:00,37.1,30.3,30.19,North,0,0.0,0.0,76,0.00,,,0.00,WUHU216HW,2013-06-14 12:32:00,
2013-06-14 05:37:00,37.1,30.3,30.19,North,0,0.0,0.0,76,0.00,,,0.00,WUHU216HW,2013-06-14 12:37:00,
2013-06-14 05:42:00,37.1,30.3,30.19,North,0,0.0,0.0,76,0.00,,,0.00,WUHU216HW,2013-06-14 12:42:00,
2013-06-14 05:47:00,37.1,30.3,30.19,North,0,0.0,0.0,76,0.00,,,0.00,WUHU216HW,2013-06-14 12:47:00,
2013-06-14 05:52:00,37.1,30.3,30.19,North,0,0.0,0.0,76,0.00,,,0.00,WUHU216HW,2013-06-14 12:52:00,
2013-06-14 05:57:00,37.1,30.5,30.19,North,0,0.0,0.0,77,0.00,,,0.00,WUHU216HW,2013-06-14 12:57:00,
2013-06-14 06:02:00,36.9,30.3,30.19,North,0,0.0,0.0,77,0.00,,,0.00,WUHU216HW,2013-06-14 13:02:00,
2013-06-14 06:07:00,36.7,29.9,30.19,WNW,293,0.0,0.0,76,0.00,,,0.00,WUHU216HW,2013-06-14 13:07:00,
2013-06-14 06:12:00,36.5,30.0,30.19,WNW,293,0.0,0.0,77,0.00,,,0.00,WUHU216HW,2013-06-14 13:12:00,
2013-06-14 06:17:00,36.5,30.0,30.19,WNW,293,0.0,0.2,77,0.00,,,0.00,WUHU216HW,2013-06-14 13:17:00,
2013-06-14 06:22:00,36.7,29.9,30.20,SW,225,0.0,0.4,76,0.00,,,0.00,WUHU216HW,2013-06-14 13:22:00,
2013-06-14 06:27:00,36.7,29.9,30.19,SE,135,0.7,0.7,76,0.00,,,0.00,WUHU216HW,2013-06-14 13:27:00,
2013-06-14 06:32:00,36.9,30.1,30.19,South,180,0.9,0.9,76,0.00,,,0.00,WUHU216HW,2013-06-14 13:32:00,
2013-06-14 06:37:00,36.9,30.1,30.19,SW,225,1.1,1.1,76,0.00,,,0.00,WUHU216HW,2013-06-14 13:37:00,
2013-06-14 06:42:00,37.1,30.3,30.19,WSW,248,0.4,2.9,76,0.00,,,0.00,WUHU216HW,2013-06-14 13:42:00,
2013-06-14 06:47:00,36.9,30.3,30.19,WSW,248,0.4,2.9,77,0.00,,,0.00,WUHU216HW,2013-06-14 13:47:00,
2013-06-14 06:52:00,36.9,30.3,30.19,SSW,203,0.0,2.0,77,0.00,,,0.00,WUHU216HW,2013-06-14 13:52:00,
2013-06-14 06:58:00,37.1,30.3,30.19,SW,225,0.4,2.0,76,0.00,,,0.00,WUHU216HW,2013-06-14 13:58:00,
2013-06-14 07:03:00,37.4,30.6,30.19,SSE,158,0.4,1.1,76,0.00,,,0.00,WUHU216HW,2013-06-14 14:03:00,
2013-06-14 07:08:00,37.8,30.9,30.19,SW,225,0.0,1.1,76,0.00,,,0.00,WUHU216HW,2013-06-14 14:08:00,
2013-06-14 07:13:00,38.2,31.2,30.19,West,270,0.9,1.1,76,0.00,,,0.00,WUHU216HW,2013-06-14 14:13:00,
2013-06-14 07:18:00,38.3,31.4,30.19,South,180,0.0,1.3,76,0.00,,,0.00,WUHU216HW,2013-06-14 14:18:00,
2013-06-14 07:23:00,38.7,32.1,30.19,SW,225,1.1,1.3,77,0.00,,,0.00,WUHU216HW,2013-06-14 14:23:00,
2013-06-14 07:28:00,39.1,32.8,30.19,West,270,0.2,1.8,78,0.00,,,0.00,WUHU216HW,2013-06-14 14:28:00,
2013-06-14 07:33:00,39.4,33.1,30.19,WSW,248,0.7,2.0,78,0.00,,,0.00,WUHU216HW,2013-06-14 14:33:00,
2013-06-14 07:38:00,39.8,33.1,30.19,South,180,1.1,2.0,77,0.00,,,0.00,WUHU216HW,2013-06-14 14:38:00,
2013-06-14 07:43:00,40.0,33.3,30.19,SSW,203,3.4,3.4,77,0.00,,,0.00,WUHU216HW,2013-06-14 14:43:00,
2013-06-14 07:48:00,40.5,33.9,30.19,SW,225,3.6,3.8,77,0.00,,,0.00,WUHU216HW,2013-06-14 14:48:00,
2013-06-14 07:53:00,40.9,34.1,30.19,SSW,203,2.5,4.7,77,0.00,,,0.00,WUHU216HW,2013-06-14 14:53:00,
2013-06-14 07:58:00,41.4,34.7,30.19,SSW,203,3.1,4.7,77,0.00,,,0.00,WUHU216HW,2013-06-14 14:58:00,
2013-06-14 08:03:00,41.6,34.8,30.19,WSW,248,2.9,4.7,77,0.00,,,0.00,WUHU216HW,2013-06-14 15:03:00,
2013-06-14 08:08:00,42.1,35.1,30.19,SSW,203,5.4,6.3,76,0.00,,,0.00,WUHU216HW,2013-06-14 15:08:00,
2013-06-14 08:14:00,42.5,35.1,30.19,SSW,203,5.6,6.3,75,0.00,,,0.00,WUHU216HW,2013-06-14 15:14:00,
2013-06-14 08:19:00,42.8,35.5,30.19,SSW,203,4.5,5.8,75,0.00,,,0.00,WUHU216HW,2013-06-14 15:19:00,
2013-06-14 08:24:00,43.2,35.5,30.19,SSW,203,4.5,5.8,74,0.00,,,0.00,WUHU216HW,2013-06-14 15:24:00,
2013-06-14 08:29:00,43.7,36.0,30.19,WSW,248,3.8,4.7,74,0.00,,,0.00,WUHU216HW,2013-06-14 15:29:00,
2013-06-14 08:34:00,44.1,36.4,30.19,SSW,203,4.7,7.8,74,0.00,,,0.00,WUHU216HW,2013-06-14 15:34:00,
2013-06-14 08:39:00,44.5,36.0,30.19,WSW,248,4.7,7.8,72,0.00,,,0.00,WUHU216HW,2013-06-14 15:39:00,
2013-06-14 08:44:00,44.8,36.4,30.19,SE,135,2.7,5.4,72,0.00,,,0.00,WUHU216HW,2013-06-14 15:44:00,
2013-06-14 08:49:00,45.2,36.7,30.18,South,180,3.6,3.6,72,0.00,,,0.00,WUHU216HW,2013-06-14 15:49:00,
2013-06-14 08:54:00,45.5,37.1,30.19,South,180,1.8,4.3,72,0.00,,,0.00,WUHU216HW,2013-06-14 15:54:00,
2013-06-14 08:59:00,45.9,37.1,30.18,SSW,203,5.4,5.6,71,0.00,,,0.00,WUHU216HW,2013-06-14 15:59:00,
2013-06-14 09:04:00,46.3,37.1,30.18,SSE,158,3.6,5.6,70,0.00,,,0.00,WUHU216HW,2013-06-14 16:04:00,
2013-06-14 09:09:00,46.6,37.0,30.18,ESE,113,0.4,4.0,69,0.00,,,0.00,WUHU216HW,2013-06-14 16:09:00,
2013-06-14 09:14:00,47.2,37.5,30.18,SE,135,6.0,6.0,69,0.00,,,0.00,WUHU216HW,2013-06-14 16:14:00,
2013-06-14 09:20:00,47.7,37.6,30.18,SE,135,4.3,6.0,68,0.00,,,0.00,WUHU216HW,2013-06-14 16:20:00,
2013-06-14 09:25:00,48.1,38.0,30.18,SW,225,2.2,4.3,68,0.00,,,0.00,WUHU216HW,2013-06-14 16:25:00,
2013-06-14 09:30:00,48.6,38.1,30.18,East,90,1.8,4.7,67,0.00,,,0.00,WUHU216HW,2013-06-14 16:30:00,
2013-06-14 09:35:00,48.8,37.5,30.18,SW,225,4.3,4.3,65,0.00,,,0.00,WUHU216HW,2013-06-14 16:35:00,
2013-06-14 09:40:00,49.1,37.8,30.17,SSE,158,3.1,4.7,65,0.00,,,0.00,WUHU216HW,2013-06-14 16:40:00,
2013-06-14 09:45:00,49.7,38.0,30.17,SSW,203,2.7,5.6,64,0.00,,,0.00,WUHU216HW,2013-06-14 16:45:00,
2013-06-14 09:50:00,50.2,37.7,30.17,SSE,158,5.1,5.6,62,0.00,,,0.00,WUHU216HW,2013-06-14 16:50:00,
2013-06-14 09:55:00,50.4,38.3,30.17,SSE,158,2.7,5.1,63,0.00,,,0.00,WUHU216HW,2013-06-14 16:55:00,
2013-06-14 10:00:00,50.8,38.2,30.17,SSW,203,0.7,6.0,62,0.00,,,0.00,WUHU216HW,2013-06-14 17:00:00,
2013-06-14 10:05:00,51.1,38.5,30.17,East,90,3.8,6.0,62,0.00,,,0.00,WUHU216HW,2013-06-14 17:05:00,
2013-06-14 10:10:00,51.5,38.9,30.17,SSW,203,0.9,4.5,62,0.00,,,0.00,WUHU216HW,2013-06-14 17:10:00,
2013-06-14 10:15:00,52.0,39.0,30.16,South,180,1.6,4.5,61,0.00,,,0.00,WUHU216HW,2013-06-14 17:15:00,
2013-06-14 10:20:00,52.4,38.4,30.17,ENE,68,3.6,7.2,59,0.00,,,0.00,WUHU216HW,2013-06-14 17:20:00,
2013-06-14 10:25:00,52.7,38.8,30.16,SSE,158,3.1,7.2,59,0.00,,,0.00,WUHU216HW,2013-06-14 17:25:00,
2013-06-14 10:30:00,53.1,38.3,30.16,SSW,203,1.6,4.7,57,0.00,,,0.00,WUHU216HW,2013-06-14 17:30:00,
2013-06-14 10:35:00,53.6,38.7,30.16,SSW,203,4.0,4.5,57,0.00,,,0.00,WUHU216HW,2013-06-14 17:35:00,
2013-06-14 10:40:00,53.8,38.4,30.16,ESE,113,3.6,4.0,56,0.00,,,0.00,WUHU216HW,2013-06-14 17:40:00,
2013-06-14 10:45:00,54.4,38.4,30.16,SE,135,1.8,5.1,55,0.00,,,0.00,WUHU216HW,2013-06-14 17:45:00,
2013-06-14 10:50:00,54.7,37.8,30.16,SE,135,1.1,5.1,53,0.00,,,0.00,WUHU216HW,2013-06-14 17:50:00,
2013-06-14 10:55:00,55.1,36.2,30.16,SE,135,3.4,4.0,49,0.00,,,0.00,WUHU216HW,2013-06-14 17:55:00,
2013-06-14 11:00:00,55.3,36.4,30.16,SE,135,3.1,4.3,49,0.00,,,0.00,WUHU216HW,2013-06-14 18:00:00,
2013-06-14 11:05:00,55.3,35.3,30.15,East,90,0.4,4.3,47,0.00,,,0.00,WUHU216HW,2013-06-14 18:05:00,
2013-06-14 11:10:00,55.4,35.4,30.15,South,180,2.5,3.4,47,0.00,,,0.00,WUHU216HW,2013-06-14 18:10:00,
2013-06-14 11:15:00,56.0,35.9,30.15,South,180,2.9,4.5,47,0.00,,,0.00,WUHU216HW,2013-06-14 18:15:00,
2013-06-14 11:20:00,56.3,35.7,30.15,WSW,248,0.4,4.5,46,0.00,,,0.00,WUHU216HW,2013-06-14 18:20:00,
2013-06-14 11:25:00,56.3,36.3,30.15,ESE,113,1.8,4.5,47,0.00,,,0.00,WUHU216HW,2013-06-14 18:25:00,
2013-06-14 11:30:00,56.7,33.8,30.15,West,270,2.5,4.5,42,0.00,,,0.00,WUHU216HW,2013-06-14 18:30:00,
2013-06-14 11:35:00,56.7,34.9,30.15,SSE,158,4.9,4.9,44,0.00,,,0.00,WUHU216HW,2013-06-14 18:35:00,
2013-06-14 11:40:00,56.9,34.5,30.15,SE,135,1.1,4.9,43,0.00,,,0.00,WUHU216HW,2013-06-14 18:40:00,
2013-06-14 11:45:00,57.2,34.3,30.15,NE,45,2.9,5.4,42,0.00,,,0.00,WUHU216HW,2013-06-14 18:45:00,
2013-06-14 11:50:00,57.4,34.5,30.14,SW,225,3.8,5.4,42,0.00,,,0.00,WUHU216HW,2013-06-14 18:50:00,
2013-06-14 11:55:00,57.8,35.4,30.14,West,270,2.5,5.1,43,0.00,,,0.00,WUHU216HW,2013-06-14 18:55:00,
2013-06-14 12:00:00,58.1,33.9,30.14,NW,315,0.7,5.1,40,0.00,,,0.00,WUHU216HW,2013-06-14 19:00:00,
2013-06-14 12:05:00,58.5,34.8,30.14,SSE,158,0.4,5.1,41,0.00,,,0.00,WUHU216HW,2013-06-14 19:05:00,
2013-06-14 12:10:00,58.7,35.6,30.14,SW,225,0.4,2.5,42,0.00,,,0.00,WUHU216HW,2013-06-14 19:10:00,
2013-06-14 12:15:00,59.2,37.2,30.14,NE,45,2.7,4.3,44,0.00,,,0.00,WUHU216HW,2013-06-14 19:15:00,
2013-06-14 12:20:00,59.4,36.2,30.14,SSE,158,3.4,4.3,42,0.00,,,0.00,WUHU216HW,2013-06-14 19:20:00,
2013-06-14 12:25:00,59.8,36.5,30.14,SE,135,7.8,7.8,42,0.00,,,0.00,WUHU216HW,2013-06-14 19:25:00,
2013-06-14 12:30:00,60.5,36.6,30.14,South,180,4.0,7.8,41,0.00,,,0.00,WUHU216HW,2013-06-14 19:30:00,
2013-06-14 12:36:00,60.7,34.0,30.14,ESE,113,2.0,5.8,37,0.00,,,0.00,WUHU216HW,2013-06-14 19:36:00,
2013-06-14 12:41:00,60.5,33.9,30.13,SW,225,1.8,3.4,37,0.00,,,0.00,WUHU216HW,2013-06-14 19:41:00,
2013-06-14 12:46:00,61.2,35.3,30.14,SSE,158,2.5,5.8,38,0.00,,,0.00,WUHU216HW,2013-06-14 19:46:00,
2013-06-14 12:51:00,61.6,35.6,30.13,ESE,113,4.3,5.8,38,0.00,,,0.00,WUHU216HW,2013-06-14 19:51:00,
2013-06-14 12:56:00,61.9,35.9,30.13,East,90,0.9,5.1,38,0.00,,,0.00,WUHU216HW,2013-06-14 19:56:00,
2013-06-14 13:01:00,61.6,33.4,30.13,North,0,0.4,5.1,35,0.00,,,0.00,WUHU216HW,2013-06-14 20:01:00,
2013-06-14 13:06:00,61.6,33.4,30.13,East,90,2.0,2.0,35,0.00,,,0.00,WUHU216HW,2013-06-14 20:06:00,
2013-06-14 13:11:00,61.9,33.0,30.13,SSE,158,3.4,4.7,34,0.00,,,0.00,WUHU216HW,2013-06-14 20:11:00,
2013-06-14 13:16:00,62.3,34.7,30.12,ESE,113,1.1,4.7,36,0.00,,,0.00,WUHU216HW,2013-06-14 20:16:00,
2013-06-14 13:21:00,62.6,30.8,30.12,SSE,158,1.6,4.0,30,0.00,,,0.00,WUHU216HW,2013-06-14 20:21:00,
2013-06-14 13:26:00,62.6,32.9,30.12,ESE,113,2.5,4.0,33,0.00,,,0.00,WUHU216HW,2013-06-14 20:26:00,
2013-06-14 13:31:00,62.8,33.1,30.12,NNE,23,3.4,4.7,33,0.00,,,0.00,WUHU216HW,2013-06-14 20:31:00,
2013-06-14 13:36:00,62.6,32.2,30.12,NE,45,1.6,4.7,32,0.00,,,0.00,WUHU216HW,2013-06-14 20:36:00,
2013-06-14 13:41:00,62.6,32.9,30.12,South,180,2.5,3.4,33,0.00,,,0.00,WUHU216HW,2013-06-14 20:41:00,
2013-06-14 13:46:00,63.0,30.2,30.12,North,0,4.0,4.0,29,0.00,,,0.00,WUHU216HW,2013-06-14 20:46:00,
2013-06-14 13:51:00,62.6,30.8,30.12,WSW,248,2.2,4.0,30,0.00,,,0.00,WUHU216HW,2013-06-14 20:51:00,
2013-06-14 13:57:00,63.0,32.6,30.11,ESE,113,3.1,3.1,32,0.00,,,0.00,WUHU216HW,2013-06-14 20:57:00,
2013-06-14 14:02:00,63.9,33.4,30.11,SSE,158,6.0,6.9,32,0.00,,,0.00,WUHU216HW,2013-06-14 21:02:00,
2013-06-14 14:07:00,64.8,33.5,30.11,North,0,0.4,6.9,31,0.00,,,0.00,WUHU216HW,2013-06-14 21:07:00,
2013-06-14 14:12:00,65.2,33.8,30.11,SSE,158,4.7,4.9,31,0.00,,,0.00,WUHU216HW,2013-06-14 21:12:00,
2013-06-14 14:17:00,65.7,33.6,30.11,SSE,158,5.6,5.6,30,0.00,,,0.00,WUHU216HW,2013-06-14 21:17:00,
2013-06-14 14:22:00,66.1,34.6,30.10,NNE,23,3.4,5.6,31,0.00,,,0.00,WUHU216HW,2013-06-14 21:22:00,
2013-06-14 14:27:00,65.5,31.4,30.10,NW,315,1.1,4.7,28,0.00,,,0.00,WUHU216HW,2013-06-14 21:27:00,
2013-06-14 14:32:00,65.3,33.2,30.10,SW,225,6.9,6.9,30,0.00,,,0.00,WUHU216HW,2013-06-14 21:32:00,
2013-06-14 14:37:00,65.9,34.4,30.09,SSE,158,3.8,6.9,31,0.00,,,0.00,WUHU216HW,2013-06-14 21:37:00,
2013-06-14 14:42:00,66.1,34.6,30.09,SSW,203,6.0,6.7,31,0.00,,,0.00,WUHU216HW,2013-06-14 21:42:00,
2013-06-14 14:47:00,66.6,35.0,30.09,SSW,203,4.0,8.3,31,0.00,,,0.00,WUHU216HW,2013-06-14 21:47:00,
2013-06-14 14:52:00,66.8,33.5,30.09,SSE,158,4.0,8.3,29,0.00,,,0.00,WUHU216HW,2013-06-14 21:52:00,
2013-06-14 14:57:00,67.3,33.9,30.09,SSE,158,5.4,5.8,29,0.00,,,0.00,WUHU216HW,2013-06-14 21:57:00,
2013-06-14 15:02:00,67.7,34.2,30.09,SSE,158,2.9,5.8,29,0.00,,,0.00,WUHU216HW,2013-06-14 22:02:00,
2013-06-14 15:08:00,67.5,34.0,30.09,NE,45,1.8,5.4,29,0.00,,,0.00,WUHU216HW,2013-06-14 22:08:00,
2013-06-14 15:13:00,67.1,32.8,30.08,SSW,203,3.4,3.4,28,0.00,,,0.00,WUHU216HW,2013-06-14 22:13:00,
2013-06-14 15:18:00,67.5,34.0,30.09,SSW,203,3.4,3.4,29,0.00,,,0.00,WUHU216HW,2013-06-14 22:18:00,
2013-06-14 15:23:00,68.0,34.5,30.08,SSW,203,4.3,4.3,29,0.00,,,0.00,WUHU216HW,2013-06-14 22:23:00,
2013-06-14 15:28:00,68.8,32.1,30.08,NW,315,2.0,4.3,26,0.00,,,0.00,WUHU216HW,2013-06-14 22:28:00,
2013-06-14 15:33:00,69.5,31.8,30.08,WSW,248,1.1,4.0,25,0.00,,,0.00,WUHU216HW,2013-06-14 22:33:00,
2013-06-14 15:38:00,71.1,34.1,30.08,East,90,0.9,4.0,26,0.00,,,0.00,WUHU216HW,2013-06-14 22:38:00,
2013-06-14 15:43:00,72.0,34.9,30.08,North,0,4.0,4.0,26,0.00,,,0.00,WUHU216HW,2013-06-14 22:43:00,
2013-06-14 15:48:00,71.1,32.1,30.08,NNE,23,4.3,9.8,24,0.00,,,0.00,WUHU216HW,2013-06-14 22:48:00,
2013-06-14 15:53:00,70.4,31.5,30.08,NW,315,5.4,9.8,24,0.00,,,0.00,WUHU216HW,2013-06-14 22:53:00,
2013-06-14 15:58:00,69.8,31.1,30.08,North,0,2.7,7.4,24,0.00,,,0.00,WUHU216HW,2013-06-14 22:58:00,
2013-06-14 16:03:00,69.1,27.5,30.07,West,270,2.7,4.7,21,0.00,,,0.00,WUHU216HW,2013-06-14 23:03:00,
2013-06-14 16:08:00,68.2,27.7,30.07,North,0,3.1,4.9,22,0.00,,,0.00,WUHU216HW,2013-06-14 23:08:00,
2013-06-14 16:13:00,68.6,31.0,30.07,WNW,293,2.7,6.3,25,0.00,,,0.00,WUHU216HW,2013-06-14 23:13:00,
2013-06-14 16:18:00,69.8,30.1,30.07,SW,225,3.4,6.3,23,0.00,,,0.00,WUHU216HW,2013-06-14 23:18:00,
2013-06-14 16:23:00,71.5,33.4,30.07,SSE,158,2.9,4.7,25,0.00,,,0.00,WUHU216HW,2013-06-14 23:23:00,
2013-06-14 16:28:00,74.5,36.0,30.07,SW,225,2.5,4.7,25,0.00,,,0.00,WUHU216HW,2013-06-14 23:28:00,
2013-06-14 16:33:00,77.0,37.1,30.06,SSE,158,4.5,6.9,24,0.00,,,0.00,WUHU216HW,2013-06-14 23:33:00,
2013-06-14 16:38:00,78.7,36.4,30.06,West,270,1.3,6.9,22,0.00,,,0.00,WUHU216HW,2013-06-14 23:38:00,
2013-06-14 16:43:00,79.9,35.4,30.06,South,180,4.0,4.0,20,0.00,,,0.00,WUHU216HW,2013-06-14 23:43:00,
2013-06-14 16:49:00,81.0,37.4,30.06,NNE,23,0.9,4.0,21,0.00,,,0.00,WUHU216HW,2013-06-14 23:49:00,
2013-06-14 16:54:00,82.1,35.5,30.06,NE,45,4.0,4.0,19,0.00,,,0.00,WUHU216HW,2013-06-14 23:54:00,
2013-06-14 16:59:00,83.2,39.1,30.06,East,90,1.8,6.0,21,0.00,,,0.00,WUHU216HW,2013-06-14 23:59:00,
2013-06-14 17:04:00,81.9,35.3,30.06,SE,135,4.3,4.3,19,0.00,,,0.00,WUHU216HW,2013-06-15 00:04:00,
2013-06-14 17:09:00,82.1,35.5,30.05,South,180,2.2,4.3,19,0.00,,,0.00,WUHU216HW,2013-06-15 00:09:00,
2013-06-14 17:14:00,82.1,30.4,30.05,South,180,0.7,3.6,16,0.00,,,0.00,WUHU216HW,2013-06-15 00:14:00,
2013-06-14 17:19:00,81.4,34.9,30.05,SSE,158,3.6,5.1,19,0.00,,,0.00,WUHU216HW,2013-06-15 00:19:00,
2013-06-14 17:24:00,81.0,34.6,30.05,WSW,248,1.3,5.1,19,0.00,,,0.00,WUHU216HW,2013-06-15 00:24:00,
2013-06-14 17:29:00,79.4,33.2,30.04,SW,225,4.3,4.7,19,0.00,,,0.00,WUHU216HW,2013-06-15 00:29:00,
2013-06-14 17:34:00,78.5,35.1,30.04,SW,225,2.9,4.7,21,0.00,,,0.00,WUHU216HW,2013-06-15 00:34:00,
2013-06-14 17:39:00,77.8,34.6,30.04,SW,225,4.7,5.4,21,0.00,,,0.00,WUHU216HW,2013-06-15 00:39:00,
2013-06-14 17:44:00,77.6,35.5,30.04,WSW,248,3.4,5.4,22,0.00,,,0.00,WUHU216HW,2013-06-15 00:44:00,
2013-06-14 17:49:00,76.9,34.9,30.04,North,0,0.9,4.0,22,0.00,,,0.00,WUHU216HW,2013-06-15 00:49:00,
2013-06-14 17:54:00,75.6,32.9,30.04,WSW,248,2.5,4.0,21,0.00,,,0.00,WUHU216HW,2013-06-15 00:54:00,
2013-06-14 17:59:00,74.7,33.1,30.04,SSE,158,2.0,3.6,22,0.00,,,0.00,WUHU216HW,2013-06-15 00:59:00,
2013-06-14 18:04:00,74.2,33.7,30.04,SSW,203,1.3,3.6,23,0.00,,,0.00,WUHU216HW,2013-06-15 01:04:00,
2013-06-14 18:10:00,73.3,33.0,30.04,ENE,68,1.8,4.0,23,0.00,,,0.00,WUHU216HW,2013-06-15 01:10:00,
2013-06-14 18:15:00,72.5,32.3,30.04,ESE,113,2.2,5.1,23,0.00,,,0.00,WUHU216HW,2013-06-15 01:15:00,
2013-06-14 18:20:00,72.0,32.9,30.04,ESE,113,0.7,5.1,24,0.00,,,0.00,WUHU216HW,2013-06-15 01:20:00,
2013-06-14 18:25:00,71.6,32.6,30.03,WSW,248,0.7,2.9,24,0.00,,,0.00,WUHU216HW,2013-06-15 01:25:00,
2013-06-14 18:30:00,71.3,32.2,30.03,NE,45,3.8,3.8,24,0.00,,,0.00,WUHU216HW,2013-06-15 01:30:00,
2013-06-14 18:35:00,70.9,32.0,30.03,North,0,4.0,4.0,24,0.00,,,0.00,WUHU216HW,2013-06-15 01:35:00,
2013-06-14 18:40:00,71.1,33.1,30.03,NE,45,0.2,4.0,25,0.00,,,0.00,WUHU216HW,2013-06-15 01:40:00,
2013-06-14 18:45:00,71.8,32.7,30.03,SE,135,1.1,4.0,24,0.00,,,0.00,WUHU216HW,2013-06-15 01:45:00,
2013-06-14 18:50:00,72.7,33.5,30.03,NE,45,1.1,4.0,24,0.00,,,0.00,WUHU216HW,2013-06-15 01:50:00,
2013-06-14 18:55:00,73.1,33.8,30.03,NNE,23,3.1,3.6,24,0.00,,,0.00,WUHU216HW,2013-06-15 01:55:00,
2013-06-14 19:00:00,72.7,33.5,30.03,ENE,68,1.8,3.1,24,0.00,,,0.00,WUHU216HW,2013-06-15 02:00:00,
2013-06-14 19:05:00,72.0,32.9,30.03,ENE,68,5.1,5.1,24,0.00,,,0.00,WUHU216HW,2013-06-15 02:05:00,
2013-06-14 19:10:00,71.1,32.1,30.03,NE,45,3.4,5.1,24,0.00,,,0.00,WUHU216HW,2013-06-15 02:10:00,
2013-06-14 19:15:00,70.4,32.5,30.03,East,90,2.2,4.0,25,0.00,,,0.00,WUHU216HW,2013-06-15 02:15:00,
2013-06-14 19:20:00,70.0,32.2,30.03,NE,45,2.9,2.9,25,0.00,,,0.00,WUHU216HW,2013-06-15 02:20:00,
2013-06-14 19:25:00,69.7,31.9,30.03,NE,45,0.2,2.9,25,0.00,,,0.00,WUHU216HW,2013-06-15 02:25:00,
2013-06-14 19:30:00,69.3,32.6,30.02,NNE,23,0.4,2.0,26,0.00,,,0.00,WUHU216HW,2013-06-15 02:30:00,
2013-06-14 19:35:00,68.8,32.1,30.02,ENE,68,5.4,5.4,26,0.00,,,0.00,WUHU216HW,2013-06-15 02:35:00,
2013-06-14 19:40:00,68.4,31.8,30.02,NE,45,0.4,5.4,26,0.00,,,0.00,WUHU216HW,2013-06-15 02:40:00,
2013-06-14 19:45:00,68.0,31.5,30.02,NE,45,1.3,3.8,26,0.00,,,0.00,WUHU216HW,2013-06-15 02:45:00,
2013-06-14 19:50:00,67.9,32.3,30.02,NE,45,2.9,3.6,27,0.00,,,0.00,WUHU216HW,2013-06-15 02:50:00,
2013-06-14 19:55:00,67.5,33.0,30.02,ENE,68,1.1,3.6,28,0.00,,,0.00,WUHU216HW,2013-06-15 02:55:00,
2013-06-14 20:00:00,67.3,32.9,30.02,NE,45,2.2,2.2,28,0.00,,,0.00,WUHU216HW,2013-06-15 03:00:00,
2013-06-14 20:05:00,67.0,32.6,30.02,ENE,68,0.9,3.8,28,0.00,,,0.00,WUHU216HW,2013-06-15 03:05:00,
2013-06-14 20:10:00,66.6,32.3,30.02,North,0,1.6,3.8,28,0.00,,,0.00,WUHU216HW,2013-06-15 03:10:00,
2013-06-14 20:15:00,66.1,31.9,30.02,East,90,1.3,2.2,28,0.00,,,0.00,WUHU216HW,2013-06-15 03:15:00,
2013-06-14 20:20:00,65.5,32.4,30.02,NE,45,0.7,2.9,29,0.00,,,0.00,WUHU216HW,2013-06-15 03:20:00,
2013-06-14 20:25:00,65.2,32.0,30.02,NNE,23,0.9,2.9,29,0.00,,,0.00,WUHU216HW,2013-06-15 03:25:00,
2013-06-14 20:30:00,64.8,31.8,30.02,ENE,68,0.7,3.8,29,0.00,,,0.00,WUHU216HW,2013-06-15 03:30:00,
2013-06-14 20:35:00,64.4,31.4,30.02,North,0,0.9,3.8,29,0.00,,,0.00,WUHU216HW,2013-06-15 03:35:00,
2013-06-14 20:40:00,64.1,30.1,30.02,NNW,338,0.4,2.9,28,0.00,,,0.00,WUHU216HW,2013-06-15 03:40:00,
2013-06-14 20:45:00,63.7,29.8,30.02,NNE,23,1.1,1.8,28,0.00,,,0.00,WUHU216HW,2013-06-15 03:45:00,
2013-06-14 20:50:00,63.5,30.6,30.02,NNW,338,1.8,1.8,29,0.00,,,0.00,WUHU216HW,2013-06-15 03:50:00,
2013-06-14 20:55:00,63.0,30.2,30.02,NE,45,1.8,1.8,29,0.00,,,0.00,WUHU216HW,2013-06-15 03:55:00,
2013-06-14 21:00:00,62.8,30.0,30.02,NNW,338,2.7,2.7,29,0.00,,,0.00,WUHU216HW,2013-06-15 04:00:00,
2013-06-14 21:01:00,62.6,29.8,30.02,North,0,1.3,2.7,29,0.00,,,0.00,WUHU216HW,2013-06-15 04:01:00,
2013-06-14 21:06:00,62.5,29.6,30.02,North,0,1.1,3.1,29,0.00,,,0.00,WUHU216HW,2013-06-15 04:06:00,
2013-06-14 21:11:00,62.1,30.3,30.02,East,90,1.3,3.4,30,0.00,,,0.00,WUHU216HW,2013-06-15 04:11:00,
2013-06-14 21:16:00,61.9,30.2,30.03,North,0,0.7,3.4,30,0.00,,,0.00,WUHU216HW,2013-06-15 04:16:00,
2013-06-14 21:21:00,61.6,29.8,30.03,East,90,0.4,3.1,30,0.00,,,0.00,WUHU216HW,2013-06-15 04:21:00,
2013-06-14 21:26:00,61.6,29.8,30.03,NNW,338,1.1,3.1,30,0.00,,,0.00,WUHU216HW,2013-06-15 04:26:00,
2013-06-14 21:32:00,61.2,29.5,30.03,NNE,23,0.2,2.9,30,0.00,,,0.00,WUHU216HW,2013-06-15 04:32:00,
2013-06-14 21:37:00,60.8,29.9,30.02,NW,315,1.8,2.9,31,0.00,,,0.00,WUHU216HW,2013-06-15 04:37:00,
2013-06-14 21:42:00,60.7,29.7,30.03,NW,315,1.3,3.4,31,0.00,,,0.00,WUHU216HW,2013-06-15 04:42:00,
2013-06-14 21:47:00,60.3,29.4,30.03,NNW,338,1.8,3.4,31,0.00,,,0.00,WUHU216HW,2013-06-15 04:47:00,
2013-06-14 21:52:00,60.1,30.0,30.02,NW,315,1.6,2.2,32,0.00,,,0.00,WUHU216HW,2013-06-15 04:52:00,
2013-06-14 21:57:00,59.9,29.9,30.03,WNW,293,0.7,2.5,32,0.00,,,0.00,WUHU216HW,2013-06-15 04:57:00,
2013-06-14 22:02:00,59.8,29.7,30.03,NW,315,2.7,2.7,32,0.00,,,0.00,WUHU216HW,2013-06-15 05:02:00,
2013-06-14 22:07:00,59.6,29.6,30.03,East,90,1.3,3.4,32,0.00,,,0.00,WUHU216HW,2013-06-15 05:07:00,
2013-06-14 22:12:00,59.4,29.4,30.03,NW,315,1.1,3.4,32,0.00,,,0.00,WUHU216HW,2013-06-15 05:12:00,
2013-06-14 22:17:00,59.0,29.2,30.03,NNW,338,1.3,2.5,32,0.00,,,0.00,WUHU216HW,2013-06-15 05:17:00,
2013-06-14 22:22:00,58.9,29.7,30.03,WNW,293,1.1,2.5,33,0.00,,,0.00,WUHU216HW,2013-06-15 05:22:00,
2013-06-14 22:27:00,58.3,29.2,30.03,NW,315,2.5,2.5,33,0.00,,,0.00,WUHU216HW,2013-06-15 05:27:00,
2013-06-14 22:32:00,58.1,29.0,30.03,NW,315,1.6,2.5,33,0.00,,,0.00,WUHU216HW,2013-06-15 05:32:00,
2013-06-14 22:37:00,58.0,28.9,30.03,NW,315,1.6,1.8,33,0.00,,,0.00,WUHU216HW,2013-06-15 05:37:00,
2013-06-14 22:43:00,57.8,28.7,30.03,NW,315,2.2,2.2,33,0.00,,,0.00,WUHU216HW,2013-06-15 05:43:00,
2013-06-14 22:48:00,57.4,29.1,30.03,NW,315,1.8,2.2,34,0.00,,,0.00,WUHU216HW,2013-06-15 05:48:00,
2013-06-14 22:53:00,57.2,28.9,30.03,NNW,338,2.5,2.9,34,0.00,,,0.00,WUHU216HW,2013-06-15 05:53:00,
2013-06-14 22:58:00,57.1,28.7,30.03,NNW,338,1.1,2.9,34,0.00,,,0.00,WUHU216HW,2013-06-15 05:58:00,
2013-06-14 23:03:00,56.7,28.5,30.03,NNW,338,1.1,2.5,34,0.00,,,0.00,WUHU216HW,2013-06-15 06:03:00,
2013-06-14 23:08:00,56.5,28.3,30.03,NNE,23,2.9,2.9,34,0.00,,,0.00,WUHU216HW,2013-06-15 06:08:00,
2013-06-14 23:13:00,56.5,29.0,30.02,WSW,248,1.3,3.4,35,0.00,,,0.00,WUHU216HW,2013-06-15 06:13:00,
2013-06-14 23:18:00,56.3,30.3,30.02,North,0,4.0,4.0,37,0.00,,,0.00,WUHU216HW,2013-06-15 06:18:00,
2013-06-14 23:23:00,56.2,30.1,30.02,NNW,338,1.1,4.0,37,0.00,,,0.00,WUHU216HW,2013-06-15 06:23:00,
2013-06-14 23:28:00,56.0,30.6,30.02,NW,315,3.1,3.4,38,0.00,,,0.00,WUHU216HW,2013-06-15 06:28:00,
2013-06-14 23:33:00,55.6,30.2,30.02,NNW,338,2.5,4.7,38,0.00,,,0.00,WUHU216HW,2013-06-15 06:33:00,
2013-06-14 23:38:00,55.4,30.8,30.02,NW,315,3.4,4.7,39,0.00,,,0.00,WUHU216HW,2013-06-15 06:38:00,
2013-06-14 23:43:00,55.1,31.1,30.02,ENE,68,4.3,4.9,40,0.00,,,0.00,WUHU216HW,2013-06-15 06:43:00,
2013-06-14 23:48:00,54.7,31.4,30.02,NW,315,5.1,5.4,41,0.00,,,0.00,WUHU216HW,2013-06-15 06:48:00,
2013-06-14 23:53:00,54.4,31.1,30.02,WSW,248,1.3,5.4,41,0.00,,,0.00,WUHU216HW,2013-06-15 06:53:00,
2013-06-14 23:58:00,54.2,32.0,30.02,NNW,338,2.0,6.5,43,0.00,,,0.00,WUHU216HW,2013-06-15 06:58:00,